Regional Weather Roundup
Issued by NWS

Home | Current Version | Previous Version | Text Only | Print | Product List | Glossary Off
Versions: 1 2 3 4 5 6 7 8 9 10 11 12 13 14 15 16 17 18 19 20 21 22 23 24 25 26 27 28 29 30 31 32 33 34 35 36 37 38 39 40 41 42 43 44 45 46 47 48 49 50

000
ASUS43 KFSD 251110
RWRSD

WEATHER ROUNDUP FOR SOUTH DAKOTA
NATIONAL WEATHER SERVICE SIOUX FALLS SD
600 AM CDT TUE APR 25 2017

NOTE: "FAIR" INDICATES FEW OR NO CLOUDS BELOW 12,000 FEET WITH NO
SIGNIFICANT WEATHER AND/OR OBSTRUCTIONS TO VISIBILITY.


SDZ001>005-009-010-012>017-251200-
NORTHWEST AND NORTH CENTRAL SOUTH DAKOTA

CITY           SKY/WX    TMP DP  RH WIND       PRES   REMARKS
BUFFALO          N/A     30  28  92 NE16      29.63F WCI  19
FAITH            N/A     30  30 100 NE20      29.68F WCI  17
MOBRIDGE       CLOUDY    34  28  79 N14       29.68F WCI  25
$$

SDZ012>016-024>037-041>051-057-063-072>074-251200-
SOUTHWEST AND SOUTH CENTRAL SOUTH DAKOTA

CITY           SKY/WX    TMP DP  RH WIND       PRES   REMARKS
RAPID CTY ARPT LGT SNOW  32  31  96 NE13      29.64S FOG     WCI  22
PIERRE         CLOUDY    35  31  85 N12       29.67R WCI  27
CUSTER         LGT SNOW  29  27  92 NE12      29.55F FOG     WCI  19
ELLSWORTH AFB  LGT SNOW  33  33 100 NE13      29.64  FOG     WCI  23
PHILIP         CLOUDY    35  31  85 NE14      29.67F WCI  26
PINE RIDGE     CLOUDY    37  36  96 E16G22    29.58R
SPEARFISH      LGT SNOW  32  32 100 E13       29.63S WCI  22
WINNER         CLOUDY    38  34  85 N14       29.65R
$$

SDZ004>011-016>023-039-040-251200-
NORTHEAST SOUTH DAKOTA

CITY           SKY/WX    TMP DP  RH WIND       PRES   REMARKS
ABERDEEN       CLOUDY    33  29  85 N16       29.68S WCI  23
WATERTOWN      CLOUDY    33  33 100 N16G25    29.60R FOG     WCI  23
BROOKINGS      CLOUDY    37  35  92 N17       29.57S
SISSETON         N/A     33  33 100 N21G30    29.63S WCI  21
$$

SDZ017-020-022-023-036>040-048>070-251200-
SOUTHEAST SOUTH DAKOTA

CITY           SKY/WX    TMP DP  RH WIND       PRES   REMARKS
SIOUX FALLS    CLOUDY    41  39  93 N15       29.57S
HURON          CLOUDY    35  34  96 N17       29.63F WCI  25
CHAMBERLAIN    CLOUDY    38  36  90 NW14      29.63F
MITCHELL       CLOUDY    38  36  92 N15       29.62F
YANKTON        CLOUDY    39  36  87 N20       29.55F
$$

ABBREVIATIONS USED IN REMARKS
   TC - TEMPERATURE IN CELSIUS
  WCI - WIND CHILL INDEX
   HX - HEAT INDEX
  VSB - VISIBILITY





USA.gov is the U.S. government's official web portal to all federal, state and local government web resources and services.